Dewpoint
-18 -19 -23 -26 -29 -31 -31 -27 -27 -28 -29 -31 -33 -34 -34 -35 -35 -35 -8 -13 -10 -10 -9 -10 -14 -8 -6 -2 -2 -2 -1 -1 -2 -4 -5 -8 -8 -11 -11 -13 -14 -11 -9 2 5
-28 -27 -26 -25 -25 -23 -24 -26 -27 -28 -30 -30 -31 -34 -34 -34 -33 -27 -10 -12 -14 -13 -14 -10 -13 -13 -7 -5 -3 -2 -0 -1 -4 -5 -5 -7 -8 -9 -10 -11 -11 -12 -8 -1 3
-26 -26 -24 -18 -18 -21 -26 -26 -25 -24 -25 -25 -25 -31 -33 -32 -6 -4 -12 -16 -16 -12 -6 -4 -8 -12 -10 -7 -5 -4 -1 -3 -4 -5 -6 -6 -7 -8 -10 -9 -10 -10 -8 -5 -1
-22 -23 -20 -20 -19 -19 -20 -21 -22 -22 -23 -23 -21 -22 -25 -8 -12 -7 -10 -17 -8 -9 -3 1 -2 -6 -10 -7 -7 -4 -4 -4 -4 -5 -5 -6 -6 -7 -8 -9 -9 -10 -8 -7 -4
-22 -23 -22 -22 -21 -23 -24 -25 -26 -27 -26 -27 -25 -23 -19 -4 -7 -9 -9 -9 -10 -11 -9 -6 -4 -6 -6 -7 -7 -5 -5 -5 -4 -5 -4 -5 -5 -6 -7 -7 -7 -9 -9 -8 -5
-24 -22 -22 -23 -24 -25 -26 -28 -30 -31 -32 -31 -26 -20 -2 -3 -12 -9 -9 -10 -11 -12 -13 -14 -13 -8 -6 -6 -5 -7 -6 -5 -5 -5 -4 -4 -5 -5 -5 -6 -6 -6 -7 -8 -7
-24 -23 -22 -24 -25 -27 -29 -31 -32 -32 -31 -28 -21 -15 -2 -5 -7 -6 -7 -7 -8 -10 -12 -12 -15 -14 -10 -7 -6 -6 -4 -4 -5 -5 -4 -4 -3 -3 -4 -5 -5 -6 -6 -6 -6
-25 -24 -25 -25 -26 -28 -30 -32 -29 -20 -15 -16 -14 -6 -1 -4 -4 -7 -6 -6 -7 -8 -8 -11 -11 -15 -11 -11 -7 -6 -5 -2 -4 -6 -6 -5 -1 -3 -5 -4 -4 -5 -5 -4 -4
-25 -25 -24 -24 -26 -29 -30 -26 -12 -10 -8 -8 -3 1 -1 -6 -9 -12 -12 -9 -6 -6 -9 -10 -11 -8 -7 -9 -6 -4 -2 -2 -4 -6 -6 -5 -3 -5 -5 -5 -5 -5 -5 -4 -4
-25 -25 -25 -27 -28 -28 -19 -10 -8 -7 -4 -4 -4 -4 -7 -9 -8 -6 -7 -8 -9 -9 -4 -6 -10 -10 -8 -5 -2 -2 -2 -3 -3 -5 -5 -5 -4 -6 -7 -7 -6 -5 -5 -5 -5
-25 -26 -26 -27 -25 -12 -5 -5 -6 -5 -5 -7 -9 -9 -8 -7 -4 -5 -4 -4 -6 -9 -8 -1 -6 -7 -9 -5 -4 -5 -4 -3 -3 -5 -4 -3 -4 -6 -7 -6 -5 -4 -4 -4 -3
-26 -25 -25 -22 -16 -7 -2 -4 -4 -3 -2 -4 -5 -6 -6 -5 -5 -5 -3 -3 -4 -5 -9 2 2 -9 -10 -11 -8 -6 -5 -3 -4 -4 -1 -0 1 -3 -5 -4 -5 -5 -4 -4 -4
-24 -22 -22 -21 -5 -3 -1 -3 -4 -2 -1 -5 -8 -7 -5 -6 -7 -5 -4 -4 -5 -5 -5 3 -0 -10 -10 -13 -11 -8 -6 -3 -3 -1 2 0 1 -4 -5 -5 -5 -5 -4 -4 -3
-24 -22 -20 -19 -2 -3 -4 -4 -2 -1 1 -8 -10 -9 -9 -9 -5 -4 -5 -8 -4 -2 1 3 1 -8 -10 -11 -14 -7 -9 -6 -4 0 6 -0 1 -4 -5 -5 -7 -8 -8 -6 -4
-20 -17 -17 -6 -7 -2 -3 -2 -1 0 -1 -10 -12 -13 -12 -7 -5 -3 -3 -6 -3 1 0 4 3 -6 -10 -12 -15 -10 -10 -7 -5 -1 2 1 0 -2 -4 -3 -3 -7 -9 -9 -8
-14 -14 -15 -2 -1 -0 -2 -0 -0 3 -1 -11 -12 -13 -10 -6 -4 -2 -1 -2 -8 -1 0 2 -1 -2 -11 -15 -16 -12 -7 -4 -3 -1 3 -0 -1 -1 -2 -2 -3 -8 -12 -9 -5
-13 -13 -13 -2 -1 -2 -6 -0 3 1 -11 -10 -11 -12 -9 -6 -4 -3 -2 -4 -9 -2 1 -3 -1 -2 -7 -10 -13 -7 -4 1 4 3 3 -2 -1 -2 -6 -7 -6 -8 -9 -0 -0
-13 -12 -0 -2 -1 -0 -0 -0 1 -6 -9 -13 -12 -11 -8 -6 -5 -1 1 -4 -12 -8 -4 -7 5 1 -3 -8 -9 -5 -4 2 2 2 0 -4 -1 -3 -7 -10 -10 -5 -1 -0 -0
-3 -1 0 0 -6 -0 -0 -0 -7 -9 -12 -10 -10 -9 -8 -8 1 2 4 2 1 2 4 3 -1 -0 -2 -7 -7 -4 -2 -3 1 3 4 -2 -4 -5 -8 -5 -4 -1 -1 -1 -1
-2 -3 -3 -10 -8 1 -1 -4 -12 -13 -10 -9 -8 -6 -5 -6 -4 4 2 2 1 0 1 3 6 -0 -0 -6 -7 -5 -4 0 -0 3 5 8 -2 1 -5 -1 -0 0 -2 -2 -2
-1 -3 -1 -14 -0 1 1 -7 -8 -10 -9 -8 -7 -6 -5 -5 -4 -0 0 -1 -2 1 1 1 3 1 -5 1 -1 -2 -4 -4 -3 -2 -1 3 5 1 -2 0 4 -3 -2 4 4
-2 -2 -3 -12 1 -2 -2 -8 -8 -9 -9 -8 -7 -7 -6 -6 -1 -5 -4 -5 -5 2 3 2 4 4 -3 -11 -11 -8 -6 -4 0 -1 -4 -2 1 2 1 -2 -1 6 5 6 5
-4 -7 -5 -1 2 -6 -8 -8 -8 -8 -8 -8 -6 -8 -7 -7 -3 -0 -5 -8 -7 -2 2 2 5 5 2 -1 -10 -10 -12 -9 -5 -4 -1 2 -2 3 3 4 5 5 4 4 3
-3 2 -5 -6 -7 -6 -6 -7 -8 -8 -8 -9 -8 -5 -6 -6 -7 1 -5 -8 -7 -3 -1 1 3 6 7 7 4 -1 -12 -13 -9 -2 -3 1 2 2 6 6 4 3 3 3 2
-1 -0 -7 -1 -5 -7 -8 -7 -8 -8 -9 -9 -7 -6 -7 -4 -5 -5 -6 -6 -7 -4 -3 -0 3 3 1 -0 4 6 4 -2 -9 -6 -3 4 4 6 6 5 3 2 2 2 2
-7 -0 -6 -7 -8 -8 -7 -8 -8 -8 -8 -8 -7 -7 -7 -5 -5 -4 -5 -5 -4 -6 -4 -2 3 2 -0 -6 -0 4 4 3 4 2 -0 -1 1 5 4 3 2 2 1 1 1
-2 -4 -4 -4 -7 -7 -7 -9 -10 -10 -10 -10 -9 -8 -6 -6 -5 -5 -5 -5 -4 -2 -3 -0 3 2 -0 -3 -4 -3 -3 -3 -5 -6 -3 2 5 5 2 2 1 1 1 0 -0
Wind_Speed
10 11 11 12 12 12 12 14 15 16 17 18 20 22 24 25 26 25 22 19 21 24 21 21 14 17 17 23 26 26 16 20 26 24 22 26 22 9 7 15 19 20 13 8 10
10 9 9 10 9 10 10 11 13 14 16 18 20 21 22 25 28 30 18 22 21 27 30 22 22 20 25 21 30 21 18 29 24 22 20 25 25 15 8 15 17 15 9 8 6
6 6 7 7 8 9 11 12 15 16 18 18 20 23 25 27 23 2 7 8 11 12 12 17 22 25 29 30 31 30 30 23 28 31 33 27 22 23 12 14 17 16 16 12 11
3 4 5 6 9 11 13 15 18 19 20 20 22 25 29 18 6 3 15 10 7 7 7 13 18 27 24 26 33 29 33 33 34 35 31 22 28 24 17 19 19 20 24 24 20
3 4 6 9 11 14 16 18 20 20 21 23 23 26 27 9 21 21 25 26 26 22 18 19 21 26 27 26 30 32 28 36 37 34 33 30 26 22 23 23 17 23 18 13 19
4 5 8 11 13 16 17 18 19 20 22 22 23 24 16 19 15 12 18 20 23 27 31 32 30 28 33 27 28 31 33 33 35 35 34 26 25 26 28 24 23 21 21 24 18
5 7 9 12 14 16 18 19 20 20 21 20 19 19 18 32 21 20 22 27 29 28 31 33 35 34 29 24 34 32 28 28 28 33 27 30 25 30 29 27 27 29 28 28 27
6 8 10 12 14 17 18 19 19 18 17 13 11 12 13 14 16 17 18 20 24 28 34 28 31 41 40 37 29 24 25 25 32 26 23 26 32 25 29 30 31 32 32 30 30
7 9 10 13 15 18 19 19 14 14 14 9 10 10 22 7 14 25 25 27 24 24 28 34 29 30 28 26 21 24 25 33 26 25 26 24 33 23 28 30 34 37 36 33 34
9 9 11 12 15 18 19 16 16 11 11 14 13 12 15 22 29 30 28 28 31 29 28 34 40 21 20 20 25 36 29 22 25 23 25 28 29 21 26 25 25 26 20 29 33
10 10 10 12 14 14 20 19 17 3 9 13 24 28 31 24 28 39 36 32 30 35 24 28 23 28 33 32 31 26 26 27 26 25 25 26 27 23 25 21 19 20 29 19 16
9 8 9 11 10 14 17 13 12 8 15 23 22 22 24 21 37 43 29 25 27 23 24 17 29 30 34 31 28 29 28 27 19 17 2 6 17 16 15 19 23 21 17 21 18
8 8 7 7 8 14 8 9 8 12 7 10 6 8 11 22 34 34 32 25 23 23 20 23 24 31 33 30 32 28 27 23 25 5 14 10 15 20 17 17 21 23 28 29 24
7 6 6 4 7 8 5 10 9 8 4 2 4 5 16 31 17 43 19 12 2 10 22 21 26 33 30 34 30 25 26 26 20 6 4 12 8 17 15 18 17 21 23 17 19
4 4 5 9 5 5 9 11 8 2 5 8 13 14 26 23 35 18 13 2 9 16 16 8 18 26 28 32 31 24 19 21 11 6 8 13 10 20 20 22 20 27 35 27 20
3 4 2 7 7 4 12 7 3 4 1 9 19 24 22 26 23 26 21 26 20 12 21 23 33 22 32 25 27 21 4 7 5 7 8 20 15 15 17 26 23 19 12 15 18
4 4 3 2 6 11 6 6 5 4 14 14 24 23 19 21 19 25 24 14 11 9 11 23 10 14 16 14 22 14 13 4 4 7 13 14 15 18 15 14 20 11 20 25 20
4 3 2 1 8 7 6 5 5 14 15 18 17 17 11 19 17 27 24 13 11 12 14 15 10 11 16 14 14 16 16 6 7 7 9 19 11 17 23 17 19 18 24 22 16
5 3 2 7 8 6 9 5 6 8 13 14 19 13 14 18 6 11 8 19 14 18 11 10 1 11 17 7 15 21 18 16 2 7 4 8 17 5 22 8 14 15 21 13 13
2 4 6 9 6 3 5 4 5 6 10 13 12 13 16 19 13 7 13 13 17 17 17 6 9 20 18 10 14 16 17 13 7 3 3 5 15 4 6 19 17 12 13 15 11
3 6 2 5 3 9 3 3 5 9 8 7 12 12 15 16 15 8 12 4 21 18 18 13 6 9 13 7 12 9 13 11 11 9 2 1 1 13 6 12 5 8 14 23 21
2 2 2 4 5 4 4 3 1 5 7 6 6 12 11 15 10 11 13 12 15 10 12 9 5 4 9 13 13 12 14 16 7 10 5 1 2 9 11 12 11 25 19 22 14
4 1 3 1 3 4 4 3 1 4 8 6 6 7 14 11 6 14 14 14 15 12 11 8 4 5 8 7 14 17 15 12 12 7 5 4 1 12 3 2 22 21 18 16 17
2 2 1 5 4 5 6 2 5 4 5 7 9 9 13 14 14 4 16 15 23 9 8 7 6 5 3 8 9 8 16 15 11 7 8 5 2 10 12 16 15 20 19 19 20
3 3 3 2 3 5 6 7 7 5 5 11 6 9 13 15 14 13 18 19 20 11 14 10 6 5 14 11 6 8 9 7 15 12 8 13 4 10 12 15 13 15 16 17 18
2 2 3 4 2 2 0 5 4 6 9 10 8 14 14 14 13 18 20 17 18 16 14 11 5 14 16 10 13 4 6 10 15 9 10 5 1 13 13 16 15 16 16 14 15
1 3 5 3 4 3 3 5 9 10 7 13 14 15 14 16 23 26 26 25 21 18 13 7 4 9 4 13 10 3 7 5 7 4 3 6 8 10 15 14 13 11 13 15 15
Wind_Direction
290 295 299 302 308 315 320 323 328 330 330 330 329 329 329 326 319 311 288 280 259 264 263 261 265 250 244 239 231 230 245 248 243 241 250 267 270 171 243 253 246 230 201 130 128
292 295 296 300 308 316 323 327 330 334 335 336 331 328 327 327 323 315 289 275 274 259 264 259 255 240 238 236 234 232 239 239 251 250 250 253 260 264 210 223 253 205 182 136 160
291 299 308 320 322 327 334 334 335 338 338 338 332 330 330 335 324 17 345 311 288 269 275 258 253 246 240 234 233 229 240 240 249 254 259 271 269 273 213 236 228 232 207 215 215
297 314 317 322 329 333 334 334 335 335 333 331 330 328 329 346 297 7 315 300 290 255 264 265 250 247 243 239 234 243 240 243 250 262 269 259 268 257 272 228 250 241 200 217 203
299 317 331 335 336 335 333 332 331 328 327 325 324 321 327 303 266 302 297 280 281 266 262 257 249 247 246 242 242 240 247 248 245 247 256 266 265 270 255 262 266 263 264 204 194
320 329 333 336 334 329 326 325 323 322 318 316 314 309 307 274 302 289 291 285 274 265 260 248 247 249 256 249 242 247 250 253 250 249 239 249 256 255 246 245 262 269 262 258 249
319 328 329 329 323 321 322 323 323 318 311 311 301 294 280 262 288 301 300 286 273 268 265 257 248 246 251 254 249 254 256 261 249 237 244 239 251 239 248 241 240 241 250 249 250
308 316 320 319 319 322 325 325 324 317 322 320 294 296 267 286 302 301 308 305 286 273 263 262 255 243 243 255 265 239 247 246 240 249 239 232 249 239 238 242 236 233 226 236 244
303 308 315 319 323 327 330 333 334 323 327 319 313 260 283 304 309 309 303 298 300 291 267 256 252 256 240 236 244 243 232 230 246 239 233 216 247 244 242 238 237 232 226 225 227
296 302 312 321 329 333 342 350 342 302 321 309 262 288 250 303 309 307 294 290 276 281 277 264 249 247 246 216 218 221 226 234 242 223 233 230 238 236 238 236 250 252 229 225 223
290 300 316 329 338 355 8 7 10 0 323 285 274 280 287 292 300 305 298 283 269 264 262 277 245 230 230 228 228 235 233 228 231 238 248 225 239 233 225 236 239 230 217 213 219
288 307 330 343 358 15 30 27 8 322 302 298 268 262 272 298 303 310 318 283 253 255 252 284 245 229 240 239 232 245 239 241 246 248 295 211 284 279 235 238 226 237 220 236 205
298 317 332 354 42 22 15 15 346 326 294 290 219 279 312 306 305 308 322 272 263 248 255 269 252 230 231 240 234 226 239 238 241 87 15 244 256 275 256 252 248 231 211 208 209
304 312 339 6 36 352 31 346 338 326 291 103 31 41 315 326 303 317 320 299 76 246 255 240 258 240 220 237 238 232 221 236 242 207 206 241 253 252 265 254 264 272 264 239 212
312 331 0 23 336 4 330 327 336 329 321 25 1 343 336 338 331 332 330 180 209 242 285 279 280 229 222 220 234 235 236 223 218 251 228 239 256 252 254 264 271 227 243 225 219
334 341 67 19 343 301 316 336 306 238 274 339 356 331 338 360 348 332 325 262 232 222 260 271 268 270 232 219 219 219 130 139 178 208 239 232 231 264 233 228 236 237 223 175 139
324 330 340 316 301 314 338 305 268 271 345 356 334 325 341 357 349 347 329 283 224 274 321 316 295 317 281 201 205 142 161 147 183 211 233 208 225 235 264 204 226 235 171 126 122
341 340 350 323 288 322 326 271 264 6 357 338 330 331 357 15 353 342 341 315 216 241 263 298 299 314 246 212 178 163 177 169 189 207 240 220 230 242 236 256 202 138 116 113 125
62 16 265 248 310 328 291 254 21 357 340 335 321 351 352 6 43 347 313 9 5 357 334 309 101 278 281 166 163 172 195 205 205 235 252 203 236 344 209 125 104 123 117 125 148
58 257 225 306 322 304 273 268 354 7 339 331 345 355 341 354 351 347 10 340 354 350 339 344 316 179 273 158 184 194 188 216 245 233 217 241 199 164 227 131 141 182 151 141 130
89 233 199 330 350 269 248 4 341 338 340 334 339 335 349 342 331 336 18 292 355 342 336 329 304 306 207 132 207 200 207 204 237 261 347 168 272 145 241 122 125 161 98 56 55
257 266 329 183 243 227 274 357 26 334 314 350 313 341 342 340 322 6 6 8 359 337 345 349 312 289 295 253 219 215 202 210 210 240 232 179 257 24 16 150 155 81 64 66 55
260 1 38 133 264 262 92 278 263 321 338 344 325 335 330 343 342 337 352 0 356 351 359 345 3 324 296 319 209 216 228 219 226 261 296 294 212 104 112 129 77 76 70 61 43
0 344 202 208 210 303 2 5 319 121 306 315 302 0 341 339 331 271 330 350 343 6 353 305 286 341 316 288 348 294 208 212 228 244 233 222 221 149 57 62 60 62 53 44 32
30 256 356 186 297 335 310 296 293 343 5 321 321 345 351 325 326 332 339 335 331 312 353 6 310 355 294 285 348 328 327 304 220 226 251 130 212 37 88 79 61 53 51 37 28
174 295 244 279 272 301 149 301 341 322 350 317 332 340 319 310 338 325 323 315 312 304 332 338 309 315 299 279 160 199 279 349 317 350 304 149 179 86 124 95 68 48 44 32 22
288 291 290 281 245 271 23 340 323 320 304 318 330 316 315 332 325 304 289 273 264 281 291 315 313 320 324 359 354 0 2 229 247 122 311 25 112 124 87 79 64 56 42 32 12
Height
1507 1506 1505 1504 1503 1502 1500 1499 1497 1495 1493 1491 1489 1487 1485 1481 1478 1477 1475 1475 1476 1473 1475 1476 1477 1478 1478 1476 1476 1475 1473 1459 1456 1452 1444 1439 1434 1438 1445 1446 1446 1446 1452 1455 1456
1504 1504 1503 1502 1501 1500 1498 1497 1496 1494 1492 1490 1487 1486 1483 1479 1474 1467 1469 1467 1469 1470 1472 1473 1472 1473 1472 1469 1470 1467 1459 1450 1451 1444 1440 1436 1434 1434 1439 1445 1445 1445 1449 1453 1457
1502 1501 1501 1500 1499 1498 1497 1495 1493 1491 1489 1487 1485 1482 1480 1477 1473 1466 1466 1466 1466 1466 1467 1469 1470 1469 1463 1463 1462 1460 1440 1448 1443 1441 1441 1434 1430 1430 1434 1439 1443 1442 1446 1451 1456
1500 1499 1499 1498 1497 1496 1494 1492 1490 1488 1486 1484 1481 1478 1476 1476 1475 1466 1467 1466 1466 1465 1465 1467 1467 1465 1458 1451 1454 1452 1438 1445 1441 1440 1437 1433 1432 1426 1431 1436 1439 1440 1442 1446 1451
1499 1498 1496 1496 1494 1493 1491 1489 1488 1486 1484 1482 1480 1477 1474 1477 1467 1465 1464 1464 1463 1463 1462 1463 1460 1459 1449 1449 1447 1435 1437 1437 1436 1437 1435 1435 1430 1430 1428 1433 1436 1438 1440 1443 1447
1497 1496 1495 1493 1492 1491 1489 1488 1485 1483 1481 1479 1478 1475 1475 1473 1462 1462 1461 1461 1460 1459 1456 1456 1452 1452 1445 1439 1437 1433 1432 1428 1430 1426 1428 1431 1429 1430 1428 1433 1433 1436 1437 1439 1443
1495 1494 1493 1492 1490 1488 1487 1484 1482 1479 1477 1475 1474 1471 1471 1460 1458 1459 1457 1454 1454 1454 1449 1450 1450 1449 1442 1435 1431 1429 1428 1421 1415 1415 1420 1427 1423 1417 1428 1430 1431 1430 1434 1436 1439
1494 1493 1492 1490 1488 1486 1482 1480 1477 1474 1472 1470 1468 1469 1462 1456 1457 1455 1454 1449 1447 1446 1443 1443 1442 1438 1435 1435 1427 1424 1424 1418 1397 1411 1414 1422 1409 1413 1423 1425 1424 1425 1425 1430 1433
1493 1491 1490 1488 1486 1482 1479 1475 1471 1470 1469 1467 1466 1467 1459 1454 1454 1452 1451 1445 1444 1442 1439 1439 1437 1430 1429 1424 1426 1418 1407 1399 1407 1406 1409 1412 1400 1411 1414 1413 1414 1415 1416 1420 1424
1491 1489 1487 1486 1483 1480 1475 1471 1467 1465 1466 1463 1465 1468 1455 1453 1449 1446 1444 1442 1439 1438 1434 1435 1432 1429 1421 1411 1407 1388 1396 1400 1397 1395 1397 1401 1393 1404 1407 1405 1406 1406 1407 1410 1413
1489 1487 1486 1484 1480 1479 1474 1468 1470 1468 1467 1468 1463 1458 1455 1449 1444 1439 1438 1434 1433 1430 1425 1432 1423 1410 1409 1396 1385 1394 1396 1391 1388 1388 1388 1390 1389 1391 1393 1399 1398 1396 1402 1404 1408
1488 1486 1483 1480 1480 1479 1474 1477 1479 1479 1467 1458 1456 1455 1449 1446 1436 1427 1428 1425 1420 1418 1421 1429 1406 1400 1404 1400 1404 1395 1393 1388 1379 1379 1389 1392 1396 1383 1385 1389 1395 1394 1397 1401 1404
1486 1483 1482 1480 1479 1478 1479 1479 1479 1478 1472 1453 1449 1446 1446 1443 1429 1418 1420 1412 1410 1413 1418 1426 1400 1394 1399 1397 1392 1390 1391 1386 1384 1393 1412 1404 1407 1399 1386 1386 1387 1389 1393 1396 1400
1482 1483 1480 1480 1479 1479 1481 1478 1477 1477 1471 1441 1445 1443 1442 1434 1418 1417 1411 1409 1418 1419 1417 1407 1395 1387 1390 1392 1383 1381 1379 1383 1383 1394 1430 1412 1417 1399 1391 1388 1387 1387 1388 1390 1395
1480 1480 1480 1478 1479 1481 1482 1477 1476 1478 1449 1440 1441 1442 1437 1434 1428 1408 1411 1414 1414 1416 1414 1401 1389 1376 1375 1378 1375 1374 1372 1377 1384 1402 1420 1418 1421 1395 1397 1393 1389 1381 1381 1386 1392
1479 1478 1478 1481 1479 1480 1477 1474 1477 1472 1445 1439 1441 1438 1431 1427 1424 1417 1410 1408 1405 1409 1404 1398 1385 1376 1362 1359 1365 1367 1377 1384 1395 1406 1420 1407 1413 1393 1386 1381 1381 1375 1378 1382 1388
1478 1478 1477 1479 1482 1477 1474 1474 1472 1451 1439 1440 1443 1436 1429 1428 1422 1415 1406 1394 1399 1399 1397 1378 1369 1364 1354 1356 1360 1368 1384 1409 1422 1417 1407 1396 1407 1386 1365 1362 1367 1369 1373 1383 1390
1476 1476 1477 1479 1479 1475 1475 1472 1462 1445 1448 1449 1443 1433 1431 1428 1426 1420 1406 1388 1386 1391 1386 1383 1392 1374 1357 1354 1361 1375 1383 1400 1408 1409 1398 1388 1389 1373 1367 1360 1363 1368 1377 1386 1393
1475 1476 1478 1479 1476 1475 1477 1464 1454 1458 1457 1451 1442 1436 1433 1430 1438 1435 1432 1417 1407 1405 1404 1390 1371 1371 1360 1354 1363 1377 1385 1382 1390 1389 1389 1375 1373 1354 1357 1363 1364 1374 1381 1390 1395
1475 1478 1480 1477 1474 1475 1474 1466 1456 1457 1458 1453 1447 1444 1440 1435 1432 1437 1430 1428 1419 1413 1405 1397 1391 1370 1371 1359 1366 1371 1377 1392 1389 1394 1393 1392 1374 1377 1361 1366 1375 1390 1381 1390 1396
1474 1475 1476 1476 1475 1475 1471 1458 1458 1460 1459 1455 1452 1450 1446 1440 1433 1431 1429 1425 1418 1412 1404 1396 1394 1379 1362 1377 1376 1377 1376 1380 1380 1377 1386 1390 1398 1371 1371 1369 1387 1379 1384 1393 1399
1474 1473 1474 1473 1476 1470 1461 1462 1463 1457 1455 1454 1453 1450 1446 1440 1438 1429 1426 1423 1420 1421 1411 1406 1403 1395 1371 1359 1360 1362 1369 1373 1385 1384 1375 1381 1390 1377 1375 1370 1378 1385 1394 1401 1411
1471 1471 1473 1471 1470 1458 1459 1458 1457 1458 1456 1456 1452 1451 1446 1441 1443 1440 1426 1424 1420 1418 1420 1415 1408 1403 1383 1371 1361 1365 1364 1366 1371 1372 1387 1387 1384 1377 1387 1391 1386 1394 1401 1406 1408
1475 1475 1470 1469 1471 1468 1462 1457 1456 1456 1457 1455 1452 1452 1447 1444 1436 1444 1429 1424 1422 1419 1418 1415 1408 1412 1404 1398 1394 1369 1360 1364 1371 1381 1382 1386 1387 1384 1393 1397 1403 1404 1405 1407 1408
1475 1474 1470 1469 1467 1468 1466 1462 1457 1455 1455 1454 1452 1452 1451 1449 1440 1435 1431 1427 1423 1420 1416 1415 1411 1409 1397 1390 1404 1395 1385 1372 1371 1373 1379 1398 1394 1396 1401 1404 1408 1412 1413 1414 1414
1475 1474 1469 1467 1469 1467 1466 1457 1457 1457 1459 1457 1455 1456 1455 1448 1444 1440 1438 1434 1428 1420 1417 1416 1415 1406 1390 1377 1381 1396 1393 1390 1388 1381 1381 1383 1389 1407 1409 1410 1415 1418 1418 1421 1419
1475 1475 1474 1469 1463 1462 1460 1462 1461 1461 1459 1458 1457 1456 1451 1445 1445 1440 1436 1431 1425 1422 1419 1418 1420 1409 1389 1379 1378 1382 1377 1375 1372 1372 1378 1388 1402 1404 1410 1419 1425 1427 1425 1422 1424